QPF
0.05 0.04 0.06 0.04 0.02 0.02 0.02 0.03 0.04 0.04 0.02 0.03 0.04 0.04 0.04 0.04 0.03 0.02 0.03 0.04 0.04 0.04 0.04 0.04 0.04 0.06 0.05 0.04 0.06 0.09 0.16 0.17 0.10 0.07 0.05 0.04 0.04 0.04 0.05 0.05 0.04 0.03 0.05
0.04 0.03 0.04 0.03 0.01 0.01 0.01 0.02 0.03 0.04 0.03 0.03 0.03 0.03 0.04 0.04 0.04 0.03 0.03 0.04 0.03 0.03 0.04 0.05 0.05 0.06 0.05 0.05 0.07 0.09 0.14 0.18 0.15 0.11 0.06 0.03 0.04 0.06 0.07 0.06 0.05 0.03 0.05
0.02 0.01 0.02 0.02 0.01 0.01 0.02 0.02 0.03 0.03 0.03 0.03 0.03 0.02 0.02 0.05 0.06 0.04 0.04 0.05 0.06 0.06 0.06 0.05 0.05 0.05 0.05 0.05 0.07 0.08 0.09 0.10 0.14 0.13 0.07 0.03 0.04 0.07 0.06 0.06 0.04 0.04 0.05
0.00 0.00 0.01 0.01 0.01 0.01 0.01 0.02 0.03 0.03 0.03 0.03 0.02 0.01 0.01 0.04 0.11 0.09 0.07 0.08 0.09 0.10 0.08 0.05 0.05 0.04 0.04 0.04 0.07 0.07 0.08 0.07 0.09 0.08 0.04 0.03 0.04 0.05 0.06 0.07 0.05 0.04 0.04
0.00 0.00 0.01 0.01 0.01 0.01 0.02 0.02 0.04 0.03 0.02 0.02 0.01 0.01 0.02 0.04 0.11 0.14 0.11 0.10 0.10 0.09 0.08 0.06 0.06 0.05 0.04 0.04 0.07 0.09 0.08 0.07 0.08 0.05 0.03 0.03 0.05 0.08 0.07 0.07 0.07 0.06 0.04
0.01 0.01 0.01 0.01 0.02 0.02 0.03 0.03 0.04 0.03 0.02 0.02 0.01 0.02 0.03 0.04 0.06 0.11 0.11 0.10 0.09 0.08 0.07 0.07 0.05 0.04 0.04 0.05 0.06 0.08 0.09 0.08 0.06 0.02 0.03 0.04 0.05 0.08 0.07 0.04 0.04 0.06 0.05
0.01 0.01 0.01 0.02 0.02 0.03 0.03 0.03 0.02 0.02 0.02 0.02 0.02 0.02 0.02 0.02 0.03 0.05 0.07 0.08 0.08 0.09 0.08 0.06 0.05 0.05 0.04 0.04 0.05 0.07 0.08 0.06 0.04 0.02 0.02 0.03 0.06 0.07 0.08 0.05 0.04 0.06 0.07
0.02 0.01 0.01 0.02 0.01 0.01 0.01 0.02 0.03 0.03 0.02 0.02 0.02 0.02 0.02 0.03 0.03 0.03 0.03 0.04 0.04 0.05 0.06 0.05 0.05 0.05 0.04 0.03 0.04 0.06 0.07 0.05 0.04 0.03 0.02 0.04 0.06 0.07 0.07 0.06 0.04 0.05 0.05
0.02 0.01 0.01 0.02 0.02 0.02 0.02 0.03 0.04 0.04 0.02 0.02 0.03 0.02 0.02 0.03 0.03 0.02 0.03 0.04 0.06 0.06 0.04 0.04 0.03 0.04 0.03 0.03 0.04 0.05 0.06 0.06 0.04 0.03 0.03 0.05 0.08 0.08 0.07 0.06 0.04 0.03 0.04
0.01 0.01 0.02 0.02 0.01 0.01 0.01 0.04 0.04 0.03 0.02 0.02 0.02 0.03 0.04 0.03 0.03 0.03 0.03 0.05 0.08 0.08 0.06 0.06 0.05 0.05 0.04 0.04 0.04 0.04 0.04 0.04 0.04 0.02 0.03 0.06 0.08 0.08 0.07 0.06 0.04 0.03 0.03
0.01 0.01 0.01 0.02 0.01 0.01 0.01 0.02 0.05 0.03 0.03 0.02 0.02 0.04 0.03 0.02 0.02 0.02 0.04 0.08 0.10 0.09 0.10 0.08 0.06 0.06 0.05 0.05 0.05 0.03 0.02 0.02 0.02 0.01 0.01 0.06 0.08 0.07 0.06 0.04 0.04 0.03 0.03
0.01 0.01 0.01 0.01 0.02 0.02 0.01 0.01 0.02 0.02 0.01 0.01 0.01 0.01 0.01 0.02 0.02 0.02 0.04 0.07 0.09 0.10 0.10 0.09 0.07 0.05 0.04 0.04 0.04 0.03 0.02 0.03 0.01 0.00 0.02 0.06 0.07 0.06 0.06 0.05 0.05 0.04 0.04
0.01 0.02 0.01 0.02 0.02 0.01 0.01 0.01 0.01 0.01 0.01 0.01 0.01 0.00 0.00 0.01 0.01 0.01 0.03 0.06 0.07 0.07 0.08 0.07 0.06 0.04 0.02 0.03 0.03 0.03 0.02 0.02 0.01 0.00 0.01 0.04 0.06 0.08 0.07 0.05 0.05 0.06 0.05
0.01 0.01 0.01 0.02 0.02 0.02 0.01 0.01 0.01 0.01 0.01 0.01 0.01 0.00 0.01 0.01 0.01 0.02 0.03 0.05 0.06 0.05 0.05 0.04 0.05 0.03 0.03 0.03 0.03 0.03 0.02 0.02 0.01 0.00 0.01 0.03 0.04 0.07 0.09 0.07 0.06 0.06 0.06
0.01 0.02 0.02 0.02 0.03 0.03 0.02 0.02 0.02 0.02 0.01 0.01 0.01 0.01 0.01 0.01 0.01 0.03 0.04 0.04 0.05 0.03 0.03 0.03 0.03 0.03 0.03 0.04 0.03 0.03 0.03 0.03 0.02 0.01 0.01 0.02 0.03 0.05 0.06 0.07 0.07 0.07 0.06
0.01 0.01 0.01 0.01 0.02 0.02 0.02 0.02 0.03 0.03 0.02 0.01 0.01 0.00 0.00 0.00 0.01 0.02 0.03 0.03 0.03 0.03 0.03 0.03 0.03 0.03 0.03 0.03 0.02 0.02 0.03 0.03 0.04 0.03 0.02 0.01 0.02 0.02 0.03 0.06 0.08 0.07 0.06
0.01 0.01 0.01 0.00 0.01 0.01 0.01 0.01 0.03 0.03 0.02 0.01 0.01 0.01 0.01 0.00 0.01 0.01 0.02 0.02 0.03 0.04 0.05 0.04 0.04 0.05 0.04 0.03 0.01 0.02 0.03 0.01 0.02 0.01 0.01 0.01 0.01 0.02 0.03 0.04 0.05 0.07 0.07
0.01 0.02 0.01 0.00 0.01 0.01 0.01 0.02 0.02 0.02 0.02 0.02 0.01 0.01 0.01 0.00 0.01 0.01 0.01 0.02 0.03 0.04 0.04 0.04 0.04 0.04 0.05 0.04 0.02 0.02 0.02 0.01 0.02 0.01 0.01 0.01 0.01 0.01 0.02 0.02 0.03 0.05 0.06
0.01 0.01 0.01 0.01 0.02 0.02 0.01 0.03 0.03 0.02 0.01 0.01 0.01 0.01 0.01 0.01 0.00 0.00 0.01 0.01 0.02 0.04 0.04 0.03 0.03 0.03 0.03 0.03 0.03 0.03 0.03 0.02 0.02 0.02 0.01 0.01 0.01 0.01 0.01 0.01 0.02 0.04 0.06
0.01 0.02 0.01 0.00 0.01 0.01 0.01 0.02 0.03 0.02 0.01 0.01 0.00 0.00 0.00 0.00 0.00 0.00 0.01 0.01 0.01 0.03 0.03 0.03 0.03 0.03 0.03 0.03 0.03 0.03 0.02 0.02 0.01 0.02 0.02 0.02 0.02 0.02 0.02 0.01 0.01 0.02 0.05
0.01 0.01 0.02 0.01 0.00 0.00 0.01 0.02 0.02 0.02 0.01 0.01 0.01 0.00 0.00 0.00 0.00 0.00 0.00 0.00 0.01 0.01 0.02 0.02 0.02 0.02 0.02 0.03 0.02 0.03 0.03 0.02 0.02 0.02 0.03 0.03 0.03 0.03 0.02 0.02 0.02 0.02 0.04
0.02 0.03 0.02 0.01 0.01 0.00 0.01 0.01 0.02 0.02 0.02 0.01 0.01 0.01 0.00 0.00 0.00 0.01 0.01 0.00 0.00 0.01 0.01 0.02 0.01 0.01 0.02 0.03 0.02 0.02 0.02 0.02 0.02 0.03 0.03 0.04 0.04 0.04 0.04 0.03 0.02 0.01 0.02
0.02 0.04 0.05 0.03 0.01 0.01 0.01 0.01 0.02 0.02 0.01 0.01 0.01 0.01 0.00 0.01 0.01 0.00 0.00 0.00 0.00 0.00 0.01 0.01 0.01 0.01 0.01 0.01 0.01 0.01 0.01 0.01 0.02 0.02 0.02 0.04 0.05 0.05 0.05 0.04 0.02 0.02 0.01
0.01 0.02 0.02 0.03 0.03 0.02 0.02 0.02 0.02 0.02 0.02 0.01 0.00 0.00 0.00 0.01 0.01 0.01 0.00 0.00 0.00 0.00 0.00 0.01 0.01 0.01 0.02 0.01 0.01 0.02 0.02 0.02 0.02 0.02 0.02 0.03 0.04 0.04 0.03 0.03 0.02 0.02 0.02
0.01 0.01 0.02 0.03 0.03 0.03 0.02 0.02 0.02 0.03 0.02 0.01 0.00 0.00 0.00 0.01 0.01 0.01 0.01 0.01 0.00 0.00 0.00 0.00 0.01 0.02 0.01 0.01 0.01 0.02 0.04 0.03 0.02 0.01 0.01 0.02 0.03 0.04 0.04 0.04 0.03 0.02 0.02
0.01 0.01 0.02 0.04 0.05 0.03 0.02 0.02 0.03 0.02 0.01 0.01 0.01 0.00 0.00 0.00 0.01 0.01 0.01 0.01 0.00 0.00 0.00 0.00 0.01 0.02 0.03 0.02 0.01 0.01 0.02 0.02 0.01 0.01 0.01 0.01 0.03 0.10 0.11 0.11 0.07 0.03 0.02
MSLP
1016.80 1015.88 1015.08 1014.47 1014.06 1013.84 1013.76 1013.73 1013.68 1013.58 1013.39 1013.15 1012.91 1012.72 1012.63 1012.65 1012.77 1012.95 1013.16 1013.33 1013.44 1013.47 1013.45 1013.40 1013.35 1013.35 1013.38 1013.45 1013.53 1013.61 1013.65 1013.65 1013.62 1013.55 1013.50 1013.46 1013.46 1013.48 1013.53 1013.57 1013.60 1013.61 1013.59
1016.80 1015.98 1015.28 1014.77 1014.44 1014.27 1014.20 1014.15 1014.08 1013.94 1013.73 1013.48 1013.25 1013.09 1013.04 1013.09 1013.24 1013.45 1013.65 1013.81 1013.90 1013.91 1013.87 1013.79 1013.72 1013.68 1013.67 1013.69 1013.72 1013.74 1013.74 1013.71 1013.66 1013.61 1013.59 1013.59 1013.62 1013.67 1013.73 1013.77 1013.78 1013.76 1013.72
1016.74 1016.03 1015.44 1015.02 1014.77 1014.65 1014.60 1014.56 1014.47 1014.32 1014.11 1013.88 1013.67 1013.54 1013.50 1013.57 1013.72 1013.90 1014.07 1014.19 1014.24 1014.23 1014.16 1014.07 1013.99 1013.92 1013.89 1013.87 1013.85 1013.82 1013.78 1013.73 1013.69 1013.66 1013.67 1013.71 1013.77 1013.85 1013.91 1013.95 1013.94 1013.89 1013.83
1016.60 1016.02 1015.54 1015.22 1015.04 1014.97 1014.95 1014.92 1014.84 1014.70 1014.50 1014.29 1014.11 1013.99 1013.96 1014.02 1014.13 1014.26 1014.37 1014.44 1014.45 1014.40 1014.33 1014.24 1014.17 1014.11 1014.06 1014.02 1013.97 1013.91 1013.85 1013.79 1013.75 1013.75 1013.78 1013.85 1013.94 1014.03 1014.09 1014.11 1014.08 1014.01 1013.92
1016.44 1015.96 1015.59 1015.36 1015.25 1015.22 1015.23 1015.22 1015.15 1015.02 1014.85 1014.66 1014.51 1014.40 1014.37 1014.39 1014.45 1014.52 1014.56 1014.57 1014.54 1014.48 1014.42 1014.36 1014.31 1014.27 1014.24 1014.20 1014.14 1014.06 1013.99 1013.92 1013.89 1013.90 1013.96 1014.05 1014.14 1014.22 1014.26 1014.24 1014.18 1014.08 1013.98
1016.30 1015.93 1015.65 1015.49 1015.43 1015.43 1015.44 1015.43 1015.37 1015.26 1015.10 1014.95 1014.81 1014.72 1014.68 1014.67 1014.68 1014.68 1014.67 1014.63 1014.57 1014.52 1014.48 1014.46 1014.46 1014.46 1014.46 1014.43 1014.37 1014.30 1014.22 1014.16 1014.13 1014.15 1014.21 1014.30 1014.37 1014.41 1014.40 1014.33 1014.22 1014.10 1013.98
1016.25 1015.96 1015.75 1015.64 1015.61 1015.61 1015.62 1015.59 1015.52 1015.40 1015.27 1015.13 1015.02 1014.95 1014.90 1014.87 1014.84 1014.80 1014.74 1014.67 1014.61 1014.57 1014.57 1014.60 1014.66 1014.71 1014.75 1014.74 1014.70 1014.63 1014.55 1014.49 1014.47 1014.49 1014.54 1014.59 1014.61 1014.58 1014.49 1014.35 1014.17 1014.00 1013.88
1016.33 1016.10 1015.95 1015.86 1015.83 1015.82 1015.78 1015.72 1015.61 1015.49 1015.35 1015.24 1015.16 1015.10 1015.07 1015.03 1014.99 1014.92 1014.84 1014.76 1014.71 1014.70 1014.74 1014.83 1014.93 1015.03 1015.10 1015.12 1015.09 1015.03 1014.97 1014.91 1014.89 1014.89 1014.90 1014.89 1014.83 1014.70 1014.50 1014.24 1013.98 1013.76 1013.61
1016.56 1016.37 1016.25 1016.17 1016.12 1016.06 1015.97 1015.85 1015.71 1015.55 1015.42 1015.32 1015.27 1015.24 1015.23 1015.21 1015.17 1015.10 1015.02 1014.95 1014.91 1014.93 1015.01 1015.14 1015.28 1015.41 1015.51 1015.55 1015.54 1015.49 1015.44 1015.39 1015.36 1015.33 1015.29 1015.19 1015.01 1014.74 1014.39 1013.99 1013.62 1013.32 1013.14
1016.90 1016.75 1016.64 1016.55 1016.47 1016.36 1016.21 1016.03 1015.84 1015.66 1015.52 1015.44 1015.41 1015.43 1015.45 1015.45 1015.43 1015.37 1015.30 1015.25 1015.23 1015.28 1015.38 1015.52 1015.69 1015.84 1015.95 1016.00 1016.00 1015.97 1015.93 1015.88 1015.84 1015.78 1015.66 1015.45 1015.13 1014.69 1014.16 1013.60 1013.08 1012.68 1012.45
1017.31 1017.18 1017.08 1016.99 1016.87 1016.71 1016.50 1016.26 1016.03 1015.83 1015.69 1015.63 1015.64 1015.68 1015.74 1015.78 1015.79 1015.75 1015.70 1015.66 1015.66 1015.71 1015.82 1015.98 1016.14 1016.29 1016.40 1016.46 1016.47 1016.46 1016.43 1016.39 1016.33 1016.22 1016.02 1015.68 1015.20 1014.57 1013.85 1013.10 1012.42 1011.90 1011.61
1017.72 1017.61 1017.52 1017.42 1017.28 1017.08 1016.83 1016.55 1016.29 1016.08 1015.95 1015.91 1015.95 1016.03 1016.13 1016.20 1016.23 1016.22 1016.18 1016.16 1016.16 1016.22 1016.33 1016.47 1016.63 1016.77 1016.87 1016.93 1016.95 1016.95 1016.94 1016.90 1016.83 1016.66 1016.37 1015.91 1015.26 1014.44 1013.52 1012.58 1011.73 1011.08 1010.70
1018.09 1018.00 1017.92 1017.82 1017.67 1017.44 1017.17 1016.88 1016.61 1016.41 1016.30 1016.28 1016.35 1016.45 1016.57 1016.67 1016.72 1016.72 1016.71 1016.70 1016.72 1016.78 1016.88 1017.01 1017.16 1017.28 1017.37 1017.43 1017.47 1017.48 1017.48 1017.45 1017.35 1017.14 1016.76 1016.17 1015.36 1014.37 1013.26 1012.13 1011.12 1010.34 1009.87
1018.40 1018.33 1018.26 1018.16 1018.00 1017.78 1017.51 1017.23 1016.97 1016.79 1016.70 1016.71 1016.79 1016.91 1017.04 1017.15 1017.21 1017.23 1017.24 1017.25 1017.28 1017.36 1017.47 1017.60 1017.73 1017.85 1017.94 1018.00 1018.04 1018.07 1018.08 1018.05 1017.93 1017.67 1017.22 1016.52 1015.59 1014.45 1013.18 1011.90 1010.75 1009.86 1009.29
1018.64 1018.59 1018.53 1018.44 1018.29 1018.08 1017.83 1017.57 1017.35 1017.20 1017.13 1017.15 1017.24 1017.37 1017.49 1017.60 1017.67 1017.71 1017.74 1017.78 1017.85 1017.95 1018.08 1018.22 1018.36 1018.47 1018.57 1018.64 1018.69 1018.73 1018.75 1018.72 1018.59 1018.30 1017.79 1017.03 1016.00 1014.76 1013.39 1012.00 1010.76 1009.77 1009.13
1018.85 1018.80 1018.75 1018.66 1018.52 1018.34 1018.12 1017.91 1017.73 1017.61 1017.57 1017.60 1017.68 1017.79 1017.89 1017.99 1018.06 1018.12 1018.18 1018.26 1018.38 1018.53 1018.70 1018.87 1019.03 1019.16 1019.26 1019.34 1019.40 1019.45 1019.49 1019.46 1019.34 1019.04 1018.51 1017.72 1016.66 1015.38 1013.96 1012.54 1011.24 1010.20 1009.50
1019.07 1019.01 1018.95 1018.86 1018.74 1018.58 1018.41 1018.24 1018.11 1018.03 1018.00 1018.03 1018.08 1018.16 1018.23 1018.30 1018.37 1018.45 1018.55 1018.69 1018.87 1019.07 1019.30 1019.51 1019.70 1019.85 1019.96 1020.06 1020.14 1020.20 1020.25 1020.25 1020.14 1019.86 1019.36 1018.59 1017.56 1016.30 1014.92 1013.51 1012.22 1011.16 1010.43
1019.32 1019.24 1019.16 1019.07 1018.95 1018.83 1018.70 1018.58 1018.50 1018.44 1018.43 1018.44 1018.46 1018.49 1018.52 1018.56 1018.62 1018.71 1018.85 1019.04 1019.29 1019.56 1019.84 1020.10 1020.32 1020.49 1020.62 1020.73 1020.83 1020.92 1020.99 1021.03 1020.97 1020.74 1020.30 1019.61 1018.67 1017.51 1016.21 1014.88 1013.64 1012.61 1011.87
1019.61 1019.51 1019.41 1019.30 1019.19 1019.08 1019.00 1018.93 1018.89 1018.87 1018.86 1018.84 1018.82 1018.80 1018.77 1018.77 1018.81 1018.91 1019.08 1019.32 1019.62 1019.95 1020.28 1020.58 1020.82 1021.01 1021.16 1021.28 1021.40 1021.52 1021.64 1021.73 1021.74 1021.61 1021.28 1020.72 1019.91 1018.90 1017.74 1016.54 1015.40 1014.42 1013.68
1019.94 1019.81 1019.67 1019.54 1019.44 1019.36 1019.31 1019.30 1019.30 1019.30 1019.29 1019.25 1019.18 1019.10 1019.02 1018.97 1018.98 1019.07 1019.26 1019.53 1019.87 1020.23 1020.58 1020.90 1021.16 1021.35 1021.51 1021.64 1021.78 1021.94 1022.12 1022.30 1022.41 1022.40 1022.22 1021.82 1021.20 1020.37 1019.39 1018.34 1017.32 1016.42 1015.70
1020.28 1020.11 1019.94 1019.79 1019.69 1019.63 1019.63 1019.66 1019.70 1019.72 1019.72 1019.65 1019.54 1019.40 1019.27 1019.17 1019.14 1019.21 1019.39 1019.67 1020.01 1020.38 1020.74 1021.05 1021.29 1021.48 1021.64 1021.78 1021.95 1022.16 1022.41 1022.68 1022.91 1023.05 1023.04 1022.83 1022.40 1021.78 1020.99 1020.12 1019.24 1018.43 1017.74
1020.60 1020.39 1020.19 1020.02 1019.91 1019.88 1019.91 1019.99 1020.07 1020.12 1020.12 1020.05 1019.91 1019.72 1019.53 1019.38 1019.31 1019.35 1019.51 1019.76 1020.08 1020.43 1020.75 1021.03 1021.25 1021.42 1021.55 1021.71 1021.90 1022.16 1022.49 1022.85 1023.21 1023.50 1023.66 1023.65 1023.43 1023.01 1022.42 1021.73 1020.99 1020.27 1019.64
1020.86 1020.62 1020.39 1020.20 1020.09 1020.08 1020.14 1020.25 1020.38 1020.47 1020.48 1020.41 1020.25 1020.03 1019.81 1019.62 1019.50 1019.50 1019.61 1019.83 1020.10 1020.40 1020.67 1020.90 1021.07 1021.20 1021.32 1021.47 1021.68 1021.98 1022.38 1022.83 1023.31 1023.74 1024.06 1024.22 1024.19 1023.96 1023.57 1023.05 1022.45 1021.84 1021.26
1021.05 1020.79 1020.52 1020.32 1020.20 1020.20 1020.29 1020.44 1020.60 1020.73 1020.77 1020.71 1020.55 1020.32 1020.08 1019.86 1019.71 1019.67 1019.74 1019.89 1020.11 1020.34 1020.55 1020.72 1020.83 1020.92 1021.01 1021.14 1021.36 1021.69 1022.13 1022.65 1023.21 1023.75 1024.20 1024.51 1024.65 1024.60 1024.38 1024.02 1023.56 1023.06 1022.56
1021.18 1020.89 1020.60 1020.37 1020.25 1020.25 1020.35 1020.53 1020.73 1020.88 1020.95 1020.92 1020.78 1020.56 1020.31 1020.08 1019.92 1019.84 1019.87 1019.98 1020.14 1020.31 1020.45 1020.56 1020.62 1020.66 1020.71 1020.82 1021.03 1021.36 1021.81 1022.36 1022.97 1023.57 1024.11 1024.54 1024.81 1024.92 1024.86 1024.66 1024.35 1023.98 1023.57
1021.24 1020.93 1020.62 1020.38 1020.24 1020.23 1020.34 1020.52 1020.74 1020.92 1021.02 1021.02 1020.90 1020.71 1020.48 1020.26 1020.10 1020.01 1020.01 1020.08 1020.20 1020.31 1020.41 1020.46 1020.47 1020.47 1020.49 1020.57 1020.75 1021.06 1021.48 1022.02 1022.63 1023.25 1023.84 1024.34 1024.72 1024.96 1025.06 1025.02 1024.87 1024.63 1024.35
Thickness
5745 5748 5750 5751 5752 5753 5754 5755 5756 5757 5758 5760 5761 5762 5763 5764 5765 5766 5766 5767 5767 5767 5767 5768 5768 5768 5769 5769 5769 5769 5768 5767 5767 5766 5766 5766 5767 5766 5766 5766 5766 5766 5766
5747 5747 5749 5750 5750 5751 5752 5753 5754 5755 5756 5757 5758 5759 5760 5761 5762 5763 5764 5765 5765 5765 5765 5765 5765 5766 5766 5767 5767 5766 5766 5765 5765 5764 5764 5764 5764 5764 5765 5765 5764 5764 5764
5746 5747 5747 5748 5749 5749 5750 5751 5752 5753 5753 5754 5755 5756 5758 5759 5760 5760 5761 5762 5762 5762 5762 5763 5763 5763 5763 5764 5764 5764 5763 5763 5762 5762 5762 5762 5762 5762 5763 5762 5762 5762 5762
5745 5745 5746 5746 5747 5747 5748 5749 5750 5751 5751 5752 5753 5754 5755 5755 5756 5757 5758 5759 5759 5759 5760 5760 5760 5760 5760 5761 5761 5761 5760 5760 5760 5759 5759 5760 5760 5760 5760 5760 5760 5760 5759
5744 5744 5744 5744 5745 5745 5746 5746 5747 5748 5749 5749 5750 5751 5752 5753 5753 5754 5755 5755 5756 5756 5757 5757 5757 5757 5757 5758 5758 5758 5758 5757 5757 5757 5757 5757 5757 5757 5757 5757 5757 5757 5757
5742 5742 5742 5743 5743 5743 5743 5744 5744 5745 5746 5746 5747 5748 5749 5750 5750 5751 5751 5752 5753 5754 5754 5754 5754 5754 5754 5754 5754 5755 5755 5754 5754 5754 5754 5754 5754 5754 5755 5754 5754 5754 5754
5740 5740 5740 5741 5741 5741 5741 5741 5742 5742 5743 5744 5744 5745 5746 5746 5747 5748 5749 5749 5750 5750 5751 5751 5751 5751 5751 5751 5751 5752 5751 5751 5750 5750 5750 5751 5751 5751 5752 5751 5751 5751 5751
5738 5738 5738 5738 5738 5738 5739 5739 5739 5739 5740 5741 5741 5742 5743 5743 5744 5745 5746 5747 5747 5747 5747 5747 5747 5748 5748 5748 5748 5748 5748 5747 5747 5747 5747 5747 5748 5748 5748 5748 5748 5747 5747
5737 5736 5736 5736 5736 5736 5736 5736 5737 5737 5737 5738 5739 5739 5740 5741 5741 5742 5743 5744 5744 5744 5744 5744 5744 5744 5744 5744 5744 5744 5743 5743 5743 5743 5743 5744 5744 5745 5744 5744 5744 5743 5743
5734 5734 5733 5733 5733 5733 5733 5734 5734 5734 5735 5735 5736 5737 5737 5738 5739 5739 5740 5741 5741 5741 5741 5740 5740 5740 5740 5740 5739 5739 5738 5738 5738 5739 5739 5740 5740 5741 5741 5740 5740 5739 5739
5731 5731 5731 5731 5730 5731 5731 5731 5731 5732 5732 5733 5733 5734 5734 5735 5735 5736 5737 5738 5738 5737 5737 5736 5736 5736 5736 5735 5735 5734 5734 5734 5734 5734 5735 5736 5736 5736 5737 5736 5735 5735 5735
5726 5727 5728 5728 5728 5728 5729 5729 5729 5729 5730 5730 5730 5731 5731 5732 5732 5733 5733 5734 5734 5733 5733 5732 5732 5732 5731 5730 5730 5730 5729 5729 5729 5729 5730 5731 5732 5732 5732 5732 5732 5731 5731
5725 5726 5726 5726 5727 5726 5726 5726 5727 5727 5727 5727 5728 5728 5728 5729 5729 5729 5729 5729 5729 5729 5728 5727 5727 5727 5726 5725 5725 5725 5725 5725 5725 5725 5725 5727 5727 5728 5728 5728 5728 5727 5727
5724 5724 5725 5725 5725 5724 5724 5724 5724 5725 5725 5725 5725 5726 5726 5725 5725 5725 5725 5725 5724 5724 5723 5723 5722 5722 5721 5721 5721 5720 5720 5720 5720 5720 5720 5721 5722 5723 5723 5724 5724 5723 5723
5722 5723 5723 5724 5723 5723 5722 5722 5722 5722 5722 5723 5723 5723 5723 5723 5722 5721 5721 5721 5720 5720 5719 5718 5718 5718 5717 5717 5716 5716 5715 5715 5715 5715 5715 5716 5717 5717 5718 5719 5719 5718 5718
5722 5722 5722 5722 5721 5721 5720 5720 5720 5720 5720 5720 5720 5720 5721 5720 5720 5719 5718 5717 5717 5716 5716 5715 5715 5714 5713 5713 5712 5712 5711 5711 5710 5710 5710 5711 5711 5712 5713 5713 5713 5713 5713
5723 5722 5722 5721 5720 5719 5719 5718 5718 5717 5717 5717 5717 5717 5717 5717 5717 5716 5715 5714 5714 5713 5712 5711 5710 5710 5709 5708 5707 5707 5706 5706 5706 5706 5706 5706 5706 5707 5707 5708 5708 5708 5707
5724 5722 5721 5722 5719 5718 5717 5716 5715 5715 5715 5714 5714 5714 5715 5714 5714 5713 5712 5711 5711 5710 5709 5708 5706 5705 5703 5702 5702 5702 5702 5702 5701 5701 5701 5701 5701 5701 5701 5701 5702 5702 5702
5725 5722 5720 5719 5717 5716 5715 5714 5713 5712 5712 5712 5711 5711 5711 5711 5711 5711 5710 5709 5708 5707 5706 5705 5702 5701 5699 5698 5698 5697 5697 5697 5697 5697 5696 5696 5696 5696 5696 5696 5696 5696 5696
5725 5722 5719 5717 5716 5715 5713 5712 5710 5710 5709 5709 5709 5709 5709 5708 5708 5708 5707 5706 5705 5704 5702 5700 5698 5698 5696 5695 5695 5693 5692 5692 5692 5692 5692 5691 5691 5691 5691 5691 5691 5690 5690
5723 5720 5717 5715 5714 5712 5710 5707 5705 5704 5705 5706 5706 5707 5706 5706 5705 5705 5703 5702 5702 5700 5698 5697 5696 5694 5692 5692 5689 5685 5686 5687 5687 5687 5687 5687 5687 5687 5686 5686 5685 5685 5684
5720 5718 5716 5714 5713 5712 5710 5707 5706 5704 5703 5703 5704 5704 5704 5704 5703 5702 5701 5699 5698 5697 5695 5694 5693 5690 5689 5689 5685 5680 5676 5677 5681 5683 5683 5683 5682 5682 5682 5681 5680 5679 5679
5719 5717 5716 5714 5712 5711 5709 5707 5705 5702 5700 5699 5699 5700 5701 5701 5701 5700 5698 5697 5696 5694 5692 5691 5690 5688 5685 5685 5685 5680 5673 5669 5671 5676 5678 5678 5678 5678 5677 5676 5676 5675 5675
5719 5718 5716 5713 5711 5710 5708 5705 5702 5698 5695 5696 5696 5697 5698 5699 5698 5697 5696 5695 5693 5692 5691 5690 5689 5687 5685 5682 5682 5682 5679 5676 5670 5667 5671 5673 5674 5673 5673 5673 5672 5671 5671
5719 5717 5715 5712 5710 5709 5707 5704 5701 5698 5696 5695 5695 5695 5695 5696 5696 5695 5694 5692 5691 5690 5689 5688 5687 5686 5684 5682 5680 5679 5677 5674 5672 5667 5664 5666 5668 5669 5669 5669 5668 5668 5667
5717 5715 5713 5710 5708 5707 5705 5703 5701 5698 5695 5693 5692 5691 5692 5692 5692 5692 5691 5690 5689 5688 5687 5686 5685 5684 5682 5681 5680 5678 5676 5673 5670 5667 5663 5661 5661 5663 5664 5665 5664 5664 5663